Location: Rimouski
(48.4330°N, 68.5170°W)
Time: 03:45:21
(UTC-04:00)

Daily predictions for brighter satellites

Satellite Brightness Start Highest point End
(mag) Time Altitude Azimuth Time Altitude Azimuth Time Altitude Azimuth
Cosmos 2219 Rocket 4.3 00:00:40 10° WNW 00:03:24 14° W 00:06:07 10° SW
Cosmos 2084 Rocket 4.5 00:04:53 25° ESE 00:04:53 25° ESE 00:07:46 10° ENE
Cosmos 1943 4.2 00:01:26 10° NNW 00:06:52 43° NE 00:11:27 14° ESE
Cosmos 494 Rocket 4.3 00:01:48 10° NNW 00:07:03 63° ENE 00:09:59 26° SE
CZ-4B R/B 1.4 00:10:33 52° S 00:11:17 74° WSW 00:14:43 10° NNW
Cosmos 2184 Rocket 3.9 00:08:33 28° S 00:12:02 90° ESE 00:18:16 10° N
NOSS 2-3 (C) 4.1 00:09:53 30° SSW 00:12:21 66° SE 00:18:11 10° NE
Cosmos 1125 Rocket 4.1 00:10:01 18° SW 00:13:55 56° WNW 00:19:10 10° NNE
SeaSat 1 3.4 00:12:26 26° SSW 00:14:12 34° WSW 00:18:42 10° NW
Cosmos 1603 3.7 00:11:04 10° NNW 00:16:46 83° WSW 00:19:41 30° SSE
Lacrosse 4 Rocket 2.8 00:20:01 10° NW 00:23:43 26° WSW 00:24:39 24° SW
Cosmos 1606 3.6 00:21:19 10° N 00:24:58 40° ENE 00:26:20 29° ESE
ASTEX 1 3.4 00:24:06 10° N 00:29:00 73° W 00:31:11 33° SSW
Cosmos 1238 Rocket 3.4 00:25:43 10° N 00:29:52 47° ENE 00:31:03 33° SE
NOSS 3-2 (A) 4.1 00:22:42 10° NW 00:30:01 73° NE 00:37:58 10° SE
Cosmos 2341 Rocket 4.4 00:28:22 27° SSE 00:31:45 56° E 00:37:58 10° NNE
Cosmos 2237 Rocket 4.4 00:31:16 10° WNW 00:33:24 12° W 00:35:32 10° WSW
NOSS 2-3 (D) 4.0 00:30:31 26° SW 00:33:26 87° SE 00:39:24 10° NE
Cosmos 1356 Rocket 3.4 00:32:22 43° SSE 00:33:29 64° E 00:37:32 10° NNE
Aureole 2 Rocket 3.2 00:31:42 10° NW 00:34:33 33° WSW 00:34:33 33° WSW
Uosat 12 SS-18 rocket 4.3 00:33:08 37° S 00:34:50 58° SE 00:39:11 10° NE
Sich 1 Rocket 3.9 00:34:41 36° SSE 00:36:16 57° E 00:40:43 10° NNE
Okean 3 4.3 00:37:45 10° N 00:41:54 45° ENE 00:43:51 27° SE
Cosmos 1733 Rocket 3.1 00:41:41 37° SSW 00:43:22 76° W 00:47:51 10° N
Landsat 5 4.3 00:42:32 32° SW 00:44:01 42° W 00:48:22 10° NNW
MOS 1-B Rocket 3.8 00:41:18 31° S 00:44:12 79° WSW 00:49:50 10° NNW
Meteor 2-3 Rocket 4.3 00:41:28 24° SW 00:44:53 53° WNW 00:50:30 10° N
Cosmos 1892 3.0 00:44:30 40° SW 00:45:36 59° WNW 00:49:22 10° N
Meteor 1-10 Rocket 4.4 00:40:20 10° NNW 00:46:14 67° W 00:49:10 31° S
BREEZE-M DEB (TANK) 4.4 00:26:21 10° SW 00:46:27 59° SSE 00:51:28 10° ENE
COSMOS 2455 4.3 00:43:13 10° WNW 00:47:36 21° WSW 00:49:34 18° SW
H-2A R/B 3.3 00:43:50 10° N 00:47:48 43° WNW 00:49:51 25° SW
ERBS 3.9 00:46:08 10° W 00:49:25 37° NNW 00:52:41 10° NE
ALOS 2 3.9 00:48:22 24° SW 00:49:44 28° W 00:53:33 10° NW
Cosmos 44 3.7 00:48:37 34° S 00:50:45 56° ESE 00:56:07 10° NE
Cosmos 1378 Rocket 3.5 00:48:30 10° N 00:52:55 77° E 00:54:36 37° SSE
Coronas F rocket 2.0 00:57:49 45° WNW 00:57:49 45° WNW 01:00:27 10° N
ATLAS 2AS CENTAUR R/B 3.9 00:54:21 10° WSW 01:01:52 50° NW 01:09:49 10° NE
Cosmos 1408 3.0 01:05:24 39° SSE 01:06:26 54° E 01:10:08 10° NNE
Helios 1A Rocket 3.7 01:06:06 10° N 01:10:06 45° WNW 01:11:55 28° SW
Cosmos 1825 2.3 01:10:18 42° SSE 01:11:23 63° E 01:15:10 10° NNE
Cosmos 1782 3.8 01:09:24 10° NNW 01:13:00 34° W 01:14:00 29° WSW
Nadezhda 3 Rocket 4.4 01:07:32 10° NNW 01:13:31 51° W 01:16:43 27° SSW
ATLAS 3B R/B 4.2 01:11:13 10° WNW 01:15:18 17° WSW 01:17:16 15° SW
Okean 2 Rocket 3.4 01:13:58 32° SSE 01:15:50 58° E 01:20:17 10° NNE
Geosat 4.3 01:14:05 10° NNE 01:19:05 64° NW 01:22:08 24° SW
Cosmos 1782 Rocket 3.6 01:17:59 36° S 01:19:41 74° E 01:24:05 10° NNE
Cosmos 2263 Rocket 2.7 01:19:12 28° S 01:21:54 49° ESE 01:27:23 10° NE
Cosmos 1340 Rocket 4.3 01:21:31 19° WSW 01:23:14 26° WNW 01:26:36 10° N
CZ-2C R/B 3.4 01:21:36 29° S 01:24:33 64° WSW 01:30:08 10° NNW
Cosmos 44 Rocket 4.3 01:21:05 14° WSW 01:25:25 46° NW 01:30:30 10° NNE
Cosmos 1727 Rocket 4.1 01:23:15 10° N 01:29:31 72° E 01:33:50 21° SSE
COSMOS 2406 4.0 01:27:39 10° NNW 01:33:19 52° NE 01:38:55 10° SE
Cosmos 1867 3.5 01:30:08 10° NW 01:35:37 71° SW 01:39:21 21° SSE
RESURS DK-1 3.3 01:36:20 28° SSE 01:37:46 37° ESE 01:41:38 10° NE
Cosmos 1975 Rocket 3.3 01:34:20 10° NNW 01:38:39 55° W 01:40:20 33° SSW
CZ-4C R/B 3.1 01:32:02 10° NW 01:38:45 49° WSW 01:43:31 22° S
ATLAS 5 CENTAUR R/B 4.3 01:33:52 10° NNW 01:38:51 29° NNE 01:44:09 10° E
Cosmos 921 Rocket 3.8 01:38:18 24° WSW 01:40:19 41° WNW 01:44:21 10° N
PSLV R/B 4.4 01:39:15 33° SW 01:40:29 43° W 01:44:23 10° NNW
Meteor 1-27 Rocket 4.5 01:36:33 10° NNW 01:41:59 40° W 01:44:47 25° SW
Abrixas rocket 3.9 01:43:34 21° SE 01:43:34 21° SE 01:45:35 10° E
CZ-2C R/B 3.3 01:38:11 10° N 01:43:08 44° WNW 01:46:13 21° SW
Iridium 4 Rocket 3.7 01:38:48 10° N 01:43:20 57° E 01:46:34 21° SSE
Cosmos 2084 Rocket 4.2 01:41:26 18° WSW 01:43:55 42° NW 01:47:34 10° NNE
Elektron 3 3.9 01:42:23 10° NW 01:45:18 89° E 01:49:35 10° SE
USA 234 3.2 01:40:09 10° SE 01:46:42 77° SW 01:53:17 10° WNW
Cosmos 1536 Rocket 3.8 01:46:11 10° N 01:50:34 68° E 01:53:18 22° SSE
Cosmos 1943 3.9 01:45:41 10° NW 01:50:52 37° WSW 01:53:14 26° SSW
Cosmos 1242 Rocket 2.4 01:47:47 10° N 01:51:18 84° ENE 01:52:43 34° SSE
CENTAUR R/B 3.5 01:44:47 10° NW 01:52:21 64° NE 02:00:30 10° ESE
PSLV R/B 3.6 01:50:38 10° NNE 01:54:52 69° ESE 01:56:56 29° S
Meteor 1-14 Rocket 4.4 01:52:04 24° S 01:55:48 77° E 02:01:42 10° NNE
Cosmos 1184 Rocket 2.8 01:55:58 40° S 01:57:04 90° ESE 02:00:27 10° NNE
NOSS 3-2 (C) 4.1 01:50:03 10° NW 01:57:14 53° WSW 02:03:50 15° SSE
SL-08 R/B 4.0 01:53:29 12° SSE 01:57:53 57° ENE 02:02:42 10° N
Landsat 4 3.6 02:06:50 28° S 02:08:42 74° WSW 02:12:32 10° NNW
Cosmos 2151 Rocket 3.5 02:12:10 26° SSW 02:14:37 81° W 02:19:08 10° N
Okean 1-7 Rocket 4.3 02:11:40 10° N 02:16:10 54° ENE 02:20:30 11° SSE
JB-3 4.2 02:12:32 10° NNE 02:16:26 84° WNW 02:18:26 27° SSW
BREEZE-M DEB (TANK) 4.5 01:53:15 10° W 02:17:39 85° N 02:22:37 10° E
Meteor 1-18 Rocket 4.2 02:13:06 10° NNW 02:18:45 77° W 02:23:13 17° S
NOSS 3-4 (A) 3.7 02:17:55 18° SW 02:22:56 75° NW 02:29:38 10° NE
NOSS 3-4 (C) 3.7 02:18:01 18° SW 02:23:01 76° NW 02:29:44 10° NE
OPS 6431 4.4 02:21:31 10° NW 02:24:37 66° SW 02:26:35 19° SSE
NPP 3.8 02:19:21 10° NNE 02:24:45 70° ESE 02:28:45 18° S
Okean 1 Rocket 3.8 02:22:11 16° SSE 02:25:29 50° E 02:29:50 10° NNE
SL-16 R/B 3.6 02:21:34 10° SE 02:27:26 45° ENE 02:33:18 10° N
Cosmos 1190 Rocket 4.1 02:24:28 10° NNW 02:29:35 55° WSW 02:33:29 17° S
Cosmos 1140 Rocket 4.2 02:28:21 10° NNW 02:33:24 55° ENE 02:38:27 10° SE
Cosmos 724 4.4 02:29:28 10° NW 02:35:33 68° WSW 02:41:41 10° SSE
Cosmos 1821 Rocket 4.3 02:32:46 13° S 02:38:29 68° E 02:44:51 10° NNE
IRAS Rocket 4.2 02:33:01 10° NNE 02:38:35 88° ESE 02:42:53 17° SSW
GP-B 3.1 02:35:21 10° N 02:39:49 89° E 02:43:18 16° S
Cosmos 1371 Rocket 4.5 02:37:07 18° SW 02:40:59 54° WNW 02:46:15 10° NNE
Cosmos 2056 Rocket 3.7 02:38:19 19° SW 02:42:06 68° WNW 02:47:20 10° NNE
ERS-2 2.2 02:38:42 10° NNE 02:42:26 80° ESE 02:44:57 20° S
CZ-2D R/B 3.7 02:40:29 10° NNE 02:45:16 31° E 02:50:04 10° SSE
Cosmos 407 Rocket 3.7 02:40:23 10° NNW 02:45:22 50° WSW 02:49:42 14° S
Meteor 1-20 Rocket 4.3 02:41:32 17° SSW 02:46:09 83° WNW 02:51:58 10° N
Cosmos 1812 3.0 02:43:16 10° NNW 02:47:04 50° W 02:49:35 19° SSW
Meteor 1-11 Rocket 4.5 02:43:13 10° S 02:48:58 55° E 02:54:47 10° NNE
Cosmos 1025 Rocket 3.7 02:44:45 10° N 02:48:59 55° ENE 02:53:12 10° SSE
Meteor 1-13 Rocket 4.3 02:44:06 10° NNW 02:49:48 88° E 02:55:35 10° S
BREEZE-M DEB (TANK) 3.8 02:47:41 10° W 02:51:40 87° NNE 03:07:35 10° ESE
EO 1 Del DPAF 4.3 02:48:19 10° SE 02:52:03 46° ENE 02:55:48 10° N
Cosmos 676 Rocket 4.1 02:48:10 10° NNW 02:53:16 57° WSW 02:58:19 10° S
Cosmos 1809 Rocket 4.5 02:52:58 13° S 02:58:28 89° W 03:04:40 10° N
Okean 1 3.9 02:57:10 10° NNW 03:00:57 41° W 03:03:47 16° SSW
SL-27 R/B 3.4 02:58:50 10° NW 03:02:09 32° WSW 03:04:27 16° SSW
Cosmos 1844 Rocket 2.9 02:58:18 14° SSW 03:03:10 70° ESE 03:08:49 10° NNE
IRS-1C 4.2 02:59:16 10° NNE 03:04:38 80° WNW 03:09:25 13° SSW
Cosmos 2263 Rocket 3.4 03:00:55 10° WSW 03:06:04 34° NW 03:11:13 10° NNE
IRS-1D 4.0 03:04:01 10° NNE 03:09:04 56° E 03:13:58 10° S
Cosmos 1400 Rocket 4.1 03:05:32 10° SSE 03:09:06 35° E 03:12:43 10° NNE
Cosmos 1844 4.1 03:05:37 12° S 03:10:53 61° ESE 03:16:35 10° NNE
Meteor 2-21 4.5 03:05:24 12° SSW 03:10:58 74° W 03:17:07 10° N
NOSS 2-2 (E) 4.5 03:07:42 13° S 03:11:18 44° ESE 03:16:06 10° NE
RESURS DK-1 3.9 03:12:19 10° WSW 03:15:55 28° NW 03:19:33 10° N
Cosmos 1544 Rocket 4.5 03:11:53 10° SSE 03:16:08 47° E 03:20:22 10° NNE
COSMOS 2406 4.1 03:12:26 10° NW 03:17:23 30° WSW 03:22:19 10° SSW
Abrixas rocket 2.2 03:16:30 11° WSW 03:19:39 69° SSE 03:23:00 10° E
Cosmos 1954 Rocket 4.4 03:15:33 10° NW 03:20:26 43° WSW 03:25:17 10° S
Cosmos 1300 Rocket 4.3 03:18:48 13° SW 03:22:18 39° WNW 03:26:26 10° N
ATLAS 5 CENTAUR R/B 2.4 03:18:22 10° NW 03:24:16 90° NE 03:30:38 10° SE
Cosmos 2278 Rocket 2.8 03:19:17 10° S 03:24:47 54° ESE 03:30:20 10° NE
USA 161 2.3 03:23:19 13° SSW 03:25:32 33° W 03:28:16 10° NNW
Resurs 1-4 Rocket 2.4 03:24:49 10° NNE 03:30:09 70° ESE 03:35:26 10° S
USA 234 4.2 03:25:14 10° S 03:30:24 25° SW 03:35:37 10° WNW
UNK 3.7 03:26:36 10° S 03:31:12 73° WSW 03:35:52 10° NNW
USA 129 3.9 03:29:51 10° SE 03:31:44 27° ENE 03:33:33 10° N
Cosmos 614 Rocket 3.9 03:27:14 10° NNW 03:32:26 76° WSW 03:37:33 10° SSE
Cosmos 1892 Rocket 3.5 03:30:25 10° NNW 03:34:47 75° W 03:39:06 10° S
Cosmos 1315 Rocket 4.0 03:31:50 10° SSE 03:35:42 43° E 03:39:33 10° NNE
Cosmos 1602 4.1 03:34:37 10° SSW 03:38:22 49° WNW 03:42:08 10° N
Cosmos 1174 4.3 03:34:47 10° NNW 03:38:47 57° NE 03:42:03 10° SE
Cosmos 2082 Rocket 2.8 03:33:54 10° NNW 03:39:37 64° ENE 03:45:17 10° SE
ARIANE 5 R/B 2.5 03:37:29 10° N 03:42:29 71° WNW 03:47:28 10° SSW
CENTAUR R/B 3.4 03:35:46 10° NW 03:43:00 43° WSW 03:50:38 10° S
Okean 2 3.3 03:39:26 10° NNW 03:43:33 78° W 03:47:39 10° S
Meteor 2-4 Rocket 3.7 03:39:24 10° NNW 03:44:47 62° W 03:50:03 10° S
MTI 3.8 03:42:02 10° S 03:45:20 69° WSW 03:48:38 10° NNW
Cosmos 1447 Rocket 4.5 03:40:42 10° NNW 03:46:52 74° W 03:52:58 10° S
Timation 2 Rocket 3.9 03:41:15 10° NNW 03:47:26 71° WSW 03:53:23 10° SSE
Cosmos 1452 Rocket 4.2 03:43:14 10° SW 03:48:14 44° WNW 03:53:17 10° NNE
Cosmos 1934 Rocket 4.4 03:42:43 10° SSW 03:48:41 47° WNW 03:54:37 10° N
ADEOS 4.3 03:44:18 10° N 03:49:11 41° WNW 03:54:03 10° SW
Cosmos 1356 3.5 03:48:34 10° SSW 03:52:06 74° W 03:55:41 10° N
Cosmos 1633 2.8 03:49:23 10° SSW 03:52:55 53° WNW 03:56:31 10° N
